User: anonymous   Login
Location: Unspecified
(0.0000°N, 0.0000°E)
Time: 10:01:16
(UTC+00:00)
Language:

ONEWEB-0503 - Orbit

View from above orbital plane
View from above orbital plane
View from above satellite
View from above satellite

Ground track
Ground track

The orbit is defined by the following mean orbital elements,

1 54121U          26145.39586647 +.00000000 +00000-0 +22055-3 0 00009
2 54121  87.9160 309.5017 0002061  91.2042 268.9327 13.19726451    04
Epoch (UTC): 25 May 2026 09:30:02
Eccentricity: 0.0002061
inclination: 87.9160°
perigee height: 1184 km
apogee height: 1187 km
right ascension of ascending node: 309.5017°
argument of perigee: 91.2042°
revolutions per day: 13.19726451
mean anomaly at epoch: 268.9327°

The dashed part of the orbit path shows where the satellite is in the earth's shadow,  

DLR